Year,Month,Day,Hour,Minute,Value (Times are PST for temperature in C)
2016,08,24,00,00,16.20
2016,08,24,00,01,16.30
2016,08,24,00,02,16.30
2016,08,24,00,03,16.40
2016,08,24,00,04,16.40
2016,08,24,00,05,16.40
2016,08,24,00,06,16.40
2016,08,24,00,07,16.30
2016,08,24,00,08,16.30
2016,08,24,00,09,16.30
2016,08,24,00,10,16.30
2016,08,24,00,11,16.30
2016,08,24,00,12,16.30
2016,08,24,00,13,16.30
2016,08,24,00,14,16.20
2016,08,24,00,15,16.20
2016,08,24,00,16,16.20
2016,08,24,00,17,16.20
2016,08,24,00,18,16.20
2016,08,24,00,19,16.20
2016,08,24,00,20,16.10
2016,08,24,00,21,16.00
2016,08,24,00,22,16.00
2016,08,24,00,23,15.90
2016,08,24,00,24,15.90
2016,08,24,00,25,15.80
2016,08,24,00,26,15.70
2016,08,24,00,27,15.60
2016,08,24,00,28,15.60
2016,08,24,00,29,15.80
2016,08,24,00,30,16.00
2016,08,24,00,31,16.20
2016,08,24,00,32,16.40
2016,08,24,00,33,16.40
2016,08,24,00,34,16.50
2016,08,24,00,35,16.60
2016,08,24,00,36,16.70
2016,08,24,00,37,16.80
2016,08,24,00,38,16.90
2016,08,24,00,39,16.90
2016,08,24,00,40,16.90
2016,08,24,00,41,16.90
2016,08,24,00,42,16.80
2016,08,24,00,43,16.70
2016,08,24,00,44,16.70
2016,08,24,00,45,16.60
2016,08,24,00,46,16.60
2016,08,24,00,47,16.50
2016,08,24,00,48,16.40
2016,08,24,00,49,16.40
2016,08,24,00,50,16.30
2016,08,24,00,51,16.20
2016,08,24,00,52,16.10
2016,08,24,00,53,16.10
2016,08,24,00,54,16.00
2016,08,24,00,55,16.00
2016,08,24,00,56,16.00
2016,08,24,00,57,15.80
2016,08,24,00,58,15.80
2016,08,24,00,59,15.80
2016,08,24,01,00,15.90
2016,08,24,01,01,15.90
2016,08,24,01,02,15.80
2016,08,24,01,03,15.60
2016,08,24,01,04,15.50
2016,08,24,01,05,15.40
2016,08,24,01,06,15.40
2016,08,24,01,07,15.40
2016,08,24,01,08,15.40
2016,08,24,01,09,15.40
2016,08,24,01,10,15.30
2016,08,24,01,11,15.30
2016,08,24,01,12,15.40
2016,08,24,01,13,15.40
2016,08,24,01,14,15.30
2016,08,24,01,15,15.30
2016,08,24,01,16,15.40
2016,08,24,01,17,15.40
2016,08,24,01,18,15.50
2016,08,24,01,19,15.50
2016,08,24,01,20,15.50
2016,08,24,01,21,15.50
2016,08,24,01,22,15.50
2016,08,24,01,23,15.50
2016,08,24,01,24,15.60
2016,08,24,01,25,15.50
2016,08,24,01,26,15.50
2016,08,24,01,27,15.50
2016,08,24,01,28,15.50
2016,08,24,01,29,15.50
2016,08,24,01,30,15.50
2016,08,24,01,31,15.50
2016,08,24,01,32,15.40
2016,08,24,01,33,15.50
2016,08,24,01,34,15.40
2016,08,24,01,35,15.30
2016,08,24,01,36,15.20
2016,08,24,01,37,15.20
2016,08,24,01,38,15.20
2016,08,24,01,39,15.10
2016,08,24,01,40,15.00
2016,08,24,01,41,15.00
2016,08,24,01,42,15.00
2016,08,24,01,43,15.00
2016,08,24,01,44,14.90
2016,08,24,01,45,14.90
2016,08,24,01,46,14.90
2016,08,24,01,47,14.90
2016,08,24,01,48,14.90
2016,08,24,01,49,14.90
2016,08,24,01,50,14.90
2016,08,24,01,51,15.00
2016,08,24,01,52,15.10
2016,08,24,01,53,15.10
2016,08,24,01,54,15.10
2016,08,24,01,55,15.20
2016,08,24,01,56,15.10
2016,08,24,01,57,14.90
2016,08,24,01,58,14.80
2016,08,24,01,59,14.70
2016,08,24,02,00,14.60
2016,08,24,02,01,14.50
2016,08,24,02,02,14.50
2016,08,24,02,03,14.40
2016,08,24,02,04,14.40
2016,08,24,02,05,14.50
2016,08,24,02,06,14.70
2016,08,24,02,07,15.00
2016,08,24,02,08,15.10
2016,08,24,02,09,15.30
2016,08,24,02,10,15.60
2016,08,24,02,11,15.80
2016,08,24,02,12,15.80
2016,08,24,02,13,15.80
2016,08,24,02,14,15.80
2016,08,24,02,15,15.80
2016,08,24,02,16,15.90
2016,08,24,02,17,16.00
2016,08,24,02,18,16.00
2016,08,24,02,19,16.00
2016,08,24,02,20,16.00
2016,08,24,02,21,15.90
2016,08,24,02,22,15.80
2016,08,24,02,23,15.80
2016,08,24,02,24,15.60
2016,08,24,02,25,15.50
2016,08,24,02,26,15.40
2016,08,24,02,27,15.30
2016,08,24,02,28,15.30
2016,08,24,02,29,15.30
2016,08,24,02,30,15.40
2016,08,24,02,31,15.40
2016,08,24,02,32,15.50
2016,08,24,02,33,15.60
2016,08,24,02,34,15.60
2016,08,24,02,35,15.60
2016,08,24,02,36,15.60
2016,08,24,02,37,15.40
2016,08,24,02,38,15.20
2016,08,24,02,39,14.90
2016,08,24,02,40,14.60
2016,08,24,02,41,14.50
2016,08,24,02,42,14.40
2016,08,24,02,43,14.30
2016,08,24,02,44,14.20
2016,08,24,02,45,14.10
2016,08,24,02,46,14.10
2016,08,24,02,47,14.00
2016,08,24,02,48,14.00
2016,08,24,02,49,13.90
2016,08,24,02,50,13.80
2016,08,24,02,51,13.70
2016,08,24,02,52,13.70
2016,08,24,02,53,13.70
2016,08,24,02,54,13.70
2016,08,24,02,55,13.60
2016,08,24,02,56,13.60
2016,08,24,02,57,13.60
2016,08,24,02,58,13.50
2016,08,24,02,59,13.50
2016,08,24,03,00,13.60
2016,08,24,03,01,13.60
2016,08,24,03,02,13.60
2016,08,24,03,03,13.60
2016,08,24,03,04,13.70
2016,08,24,03,05,13.80
2016,08,24,03,06,13.80
2016,08,24,03,07,13.80
2016,08,24,03,08,13.90
2016,08,24,03,09,13.90
2016,08,24,03,10,14.00
2016,08,24,03,11,14.00
2016,08,24,03,12,14.00
2016,08,24,03,13,14.10
2016,08,24,03,14,14.10
2016,08,24,03,15,14.10
2016,08,24,03,16,14.10
2016,08,24,03,17,14.20
2016,08,24,03,18,14.20
2016,08,24,03,19,14.20
2016,08,24,03,20,14.30
2016,08,24,03,21,14.30
2016,08,24,03,22,14.40
2016,08,24,03,23,14.40
2016,08,24,03,24,14.50
2016,08,24,03,25,14.60
2016,08,24,03,26,14.70
2016,08,24,03,27,14.70
2016,08,24,03,28,14.70
2016,08,24,03,29,14.70
2016,08,24,03,30,14.60
2016,08,24,03,31,14.50
2016,08,24,03,32,14.50
2016,08,24,03,33,14.50
2016,08,24,03,34,14.50
2016,08,24,03,35,14.50
2016,08,24,03,36,14.50
2016,08,24,03,37,14.60
2016,08,24,03,38,14.60
2016,08,24,03,39,14.60
2016,08,24,03,40,14.60
2016,08,24,03,41,14.70
2016,08,24,03,42,14.70
2016,08,24,03,43,14.70
2016,08,24,03,44,14.80
2016,08,24,03,45,14.80
2016,08,24,03,46,14.80
2016,08,24,03,47,14.80
2016,08,24,03,48,14.80
2016,08,24,03,49,14.80
2016,08,24,03,50,14.70
2016,08,24,03,51,14.70
2016,08,24,03,52,14.60
2016,08,24,03,53,14.40
2016,08,24,03,54,14.20
2016,08,24,03,55,14.00
2016,08,24,03,56,14.00
2016,08,24,03,57,13.90
2016,08,24,03,58,13.80
2016,08,24,03,59,13.80
2016,08,24,04,00,13.80
2016,08,24,04,01,13.80
2016,08,24,04,02,13.90
2016,08,24,04,03,13.90
2016,08,24,04,04,13.90
2016,08,24,04,05,13.80
2016,08,24,04,06,13.70
2016,08,24,04,07,13.60
2016,08,24,04,08,13.50
2016,08,24,04,09,13.40
2016,08,24,04,10,13.40
2016,08,24,04,11,13.50
2016,08,24,04,12,13.40
2016,08,24,04,13,13.40
2016,08,24,04,14,13.30
2016,08,24,04,15,13.20
2016,08,24,04,16,13.20
2016,08,24,04,17,13.20
2016,08,24,04,18,13.10
2016,08,24,04,19,13.10
2016,08,24,04,20,13.10
2016,08,24,04,21,13.00
2016,08,24,04,22,13.00
2016,08,24,04,23,13.00
2016,08,24,04,24,13.00
2016,08,24,04,25,13.00
2016,08,24,04,26,13.00
2016,08,24,04,27,12.90
2016,08,24,04,28,12.90
2016,08,24,04,29,12.90
2016,08,24,04,30,12.90
2016,08,24,04,31,12.80
2016,08,24,04,32,12.80
2016,08,24,04,33,12.80
2016,08,24,04,34,12.80
2016,08,24,04,35,12.80
2016,08,24,04,36,12.90
2016,08,24,04,37,12.90
2016,08,24,04,38,12.90
2016,08,24,04,39,12.90
2016,08,24,04,40,12.90
2016,08,24,04,41,13.00
2016,08,24,04,42,13.00
2016,08,24,04,43,13.00
2016,08,24,04,44,13.00
2016,08,24,04,45,13.10
2016,08,24,04,46,13.20
2016,08,24,04,47,13.30
2016,08,24,04,48,13.40
2016,08,24,04,49,13.50
2016,08,24,04,50,13.70
2016,08,24,04,51,13.80
2016,08,24,04,52,13.90
2016,08,24,04,53,14.00
2016,08,24,04,54,14.10
2016,08,24,04,55,14.20
2016,08,24,04,56,14.30
2016,08,24,04,57,14.30
2016,08,24,04,58,14.40
2016,08,24,04,59,14.50
2016,08,24,05,00,14.60
2016,08,24,05,01,14.60
2016,08,24,05,02,14.70
2016,08,24,05,03,14.70
2016,08,24,05,04,14.70
2016,08,24,05,05,14.70
2016,08,24,05,06,14.70
2016,08,24,05,07,14.80
2016,08,24,05,08,14.80
2016,08,24,05,09,14.80
2016,08,24,05,10,14.80
2016,08,24,05,11,14.60
2016,08,24,05,12,14.30
2016,08,24,05,13,14.10
2016,08,24,05,14,13.80
2016,08,24,05,15,13.60
2016,08,24,05,16,13.60
2016,08,24,05,17,13.60
2016,08,24,05,18,13.70
2016,08,24,05,19,13.70
2016,08,24,05,20,13.70
2016,08,24,05,21,13.60
2016,08,24,05,22,13.40
2016,08,24,05,23,13.40
2016,08,24,05,24,13.30
2016,08,24,05,25,13.20
2016,08,24,05,26,13.10
2016,08,24,05,27,13.00
2016,08,24,05,28,12.80
2016,08,24,05,29,12.70
2016,08,24,05,30,12.70
2016,08,24,05,31,12.70
2016,08,24,05,32,12.60
2016,08,24,05,33,12.60
2016,08,24,05,34,12.50
2016,08,24,05,35,12.50
2016,08,24,05,36,12.40
2016,08,24,05,37,12.50
2016,08,24,05,38,12.50
2016,08,24,05,39,12.50
2016,08,24,05,40,12.60
2016,08,24,05,41,12.60
2016,08,24,05,42,12.60
2016,08,24,05,43,12.60
2016,08,24,05,44,12.70
2016,08,24,05,45,12.70
2016,08,24,05,46,12.70
2016,08,24,05,47,12.70
2016,08,24,05,48,12.70
2016,08,24,05,49,12.70
2016,08,24,05,50,12.70
2016,08,24,05,51,12.70
2016,08,24,05,52,12.70
2016,08,24,05,53,12.70
2016,08,24,05,54,12.70
2016,08,24,05,55,12.70
2016,08,24,05,56,12.80
2016,08,24,05,57,12.80
2016,08,24,05,58,12.80
2016,08,24,05,59,12.80
2016,08,24,06,00,12.80
2016,08,24,06,01,12.90
2016,08,24,06,02,12.90
2016,08,24,06,03,12.90
2016,08,24,06,04,12.80
2016,08,24,06,05,12.80
2016,08,24,06,06,12.80
2016,08,24,06,07,12.80
2016,08,24,06,08,12.80
2016,08,24,06,09,12.80
2016,08,24,06,10,12.80
2016,08,24,06,11,12.70
2016,08,24,06,12,12.70
2016,08,24,06,13,12.70
2016,08,24,06,14,12.80
2016,08,24,06,15,12.80
2016,08,24,06,16,12.90
2016,08,24,06,17,12.90
2016,08,24,06,18,12.90
2016,08,24,06,19,13.00
2016,08,24,06,20,13.00
2016,08,24,06,21,13.10
2016,08,24,06,22,13.10
2016,08,24,06,23,13.20
2016,08,24,06,24,13.30
2016,08,24,06,25,13.30
2016,08,24,06,26,13.40
2016,08,24,06,27,13.60
2016,08,24,06,28,13.90
2016,08,24,06,29,14.10
2016,08,24,06,30,14.30
2016,08,24,06,31,14.40
2016,08,24,06,32,14.30
2016,08,24,06,33,14.20
2016,08,24,06,34,14.10
2016,08,24,06,35,14.00
2016,08,24,06,36,13.90
2016,08,24,06,37,13.80
2016,08,24,06,38,13.70
2016,08,24,06,39,13.60
2016,08,24,06,40,13.60
2016,08,24,06,41,13.60
2016,08,24,06,42,13.60
2016,08,24,06,43,13.60
2016,08,24,06,44,13.70
2016,08,24,06,45,13.80
2016,08,24,06,46,14.00
2016,08,24,06,47,14.10
2016,08,24,06,48,14.30
2016,08,24,06,49,14.50
2016,08,24,06,50,14.60
2016,08,24,06,51,14.80
2016,08,24,06,52,14.90
2016,08,24,06,53,15.10
2016,08,24,06,54,15.20
2016,08,24,06,55,15.30
2016,08,24,06,56,15.40
2016,08,24,06,57,15.50
2016,08,24,06,58,15.60
2016,08,24,06,59,15.70
2016,08,24,07,00,15.80
2016,08,24,07,01,15.80
2016,08,24,07,02,15.90
2016,08,24,07,03,16.00
2016,08,24,07,04,16.00
2016,08,24,07,05,16.10
2016,08,24,07,06,16.10
2016,08,24,07,07,16.20
2016,08,24,07,08,16.30
2016,08,24,07,09,16.30
2016,08,24,07,10,16.30
2016,08,24,07,11,16.40
2016,08,24,07,12,16.40
2016,08,24,07,13,16.50
2016,08,24,07,14,16.50
2016,08,24,07,15,16.50
2016,08,24,07,16,16.60
2016,08,24,07,17,16.60
2016,08,24,07,18,16.60
2016,08,24,07,19,16.60
2016,08,24,07,20,16.60
2016,08,24,07,21,16.60
2016,08,24,07,22,16.60
2016,08,24,07,23,16.70
2016,08,24,07,24,16.70
2016,08,24,07,25,16.70
2016,08,24,07,26,16.70
2016,08,24,07,27,16.70
2016,08,24,07,28,16.70
2016,08,24,07,29,16.70
2016,08,24,07,30,16.70
2016,08,24,07,31,16.80
2016,08,24,07,32,16.80
2016,08,24,07,33,16.80
2016,08,24,07,34,16.80
2016,08,24,07,35,16.80
2016,08,24,07,36,16.80
2016,08,24,07,37,16.80
2016,08,24,07,38,16.80
2016,08,24,07,39,16.80
2016,08,24,07,40,16.80
2016,08,24,07,41,16.80
2016,08,24,07,42,16.80
2016,08,24,07,43,16.80
2016,08,24,07,44,16.80
2016,08,24,07,45,16.90
2016,08,24,07,46,16.90
2016,08,24,07,47,16.90
2016,08,24,07,48,17.00
2016,08,24,07,49,17.00
2016,08,24,07,50,17.00
2016,08,24,07,51,17.10
2016,08,24,07,52,17.10
2016,08,24,07,53,17.20
2016,08,24,07,54,17.30
2016,08,24,07,55,17.40
2016,08,24,07,56,17.50
2016,08,24,07,57,17.50
2016,08,24,07,58,17.60
2016,08,24,07,59,17.70
2016,08,24,08,00,17.70
2016,08,24,08,01,17.80
2016,08,24,08,02,17.80
2016,08,24,08,03,17.90
2016,08,24,08,04,17.90
2016,08,24,08,05,17.90
2016,08,24,08,06,17.90
2016,08,24,08,07,17.90
2016,08,24,08,08,17.90
2016,08,24,08,09,17.90
2016,08,24,08,10,17.90
2016,08,24,08,11,17.90
2016,08,24,08,12,17.90
2016,08,24,08,13,17.90
2016,08,24,08,14,17.90
2016,08,24,08,15,17.90
2016,08,24,08,16,17.80
2016,08,24,08,17,17.90
2016,08,24,08,18,17.80
2016,08,24,08,19,17.80
2016,08,24,08,20,17.80
2016,08,24,08,21,17.80
2016,08,24,08,22,17.70
2016,08,24,08,23,17.70
2016,08,24,08,24,17.70
2016,08,24,08,25,17.70
2016,08,24,08,26,17.60
2016,08,24,08,27,17.60
2016,08,24,08,28,17.50
2016,08,24,08,29,17.40
2016,08,24,08,30,17.40
2016,08,24,08,31,17.30
2016,08,24,08,32,17.20
2016,08,24,08,33,17.20
2016,08,24,08,34,17.20
2016,08,24,08,35,17.10
2016,08,24,08,36,17.10
2016,08,24,08,37,17.10
2016,08,24,08,38,17.10
2016,08,24,08,39,17.10
2016,08,24,08,40,17.10
2016,08,24,08,41,17.10
2016,08,24,08,42,17.00
2016,08,24,08,43,17.00
2016,08,24,08,44,16.90
2016,08,24,08,45,16.90
2016,08,24,08,46,16.90
2016,08,24,08,47,16.90
2016,08,24,08,48,16.90
2016,08,24,08,49,16.90
2016,08,24,08,50,16.90
2016,08,24,08,51,16.90
2016,08,24,08,52,16.90
2016,08,24,08,53,16.90
2016,08,24,08,54,17.00
2016,08,24,08,55,17.00
2016,08,24,08,56,17.00
2016,08,24,08,57,17.00
2016,08,24,08,58,17.00
2016,08,24,08,59,17.00
2016,08,24,09,00,17.00
2016,08,24,09,01,16.90
2016,08,24,09,02,16.90
2016,08,24,09,03,16.90
2016,08,24,09,04,16.90
2016,08,24,09,05,16.80
2016,08,24,09,06,16.80
2016,08,24,09,07,16.80
2016,08,24,09,08,16.70
2016,08,24,09,09,16.70
2016,08,24,09,10,16.60
2016,08,24,09,11,16.60
2016,08,24,09,12,16.50
2016,08,24,09,13,16.50
2016,08,24,09,14,16.40
2016,08,24,09,15,16.40
2016,08,24,09,16,16.40
2016,08,24,09,17,16.50
2016,08,24,09,18,16.50
2016,08,24,09,19,16.60
2016,08,24,09,20,16.70
2016,08,24,09,21,16.70
2016,08,24,09,22,16.80
2016,08,24,09,23,16.80
2016,08,24,09,24,16.70
2016,08,24,09,25,16.70
2016,08,24,09,26,16.70
2016,08,24,09,27,16.80
2016,08,24,09,28,16.80
2016,08,24,09,29,16.80
2016,08,24,09,30,16.80
2016,08,24,09,31,16.80
2016,08,24,09,32,16.80
2016,08,24,09,33,16.80
2016,08,24,09,34,16.80
2016,08,24,09,35,16.80
2016,08,24,09,36,16.80
2016,08,24,09,37,16.80
2016,08,24,09,38,16.70
2016,08,24,09,39,16.70
2016,08,24,09,40,16.70
2016,08,24,09,41,16.70
2016,08,24,09,42,16.80
2016,08,24,09,43,16.90
2016,08,24,09,44,16.90
2016,08,24,09,45,17.00
2016,08,24,09,46,17.10
2016,08,24,09,47,17.10
2016,08,24,09,48,17.10
2016,08,24,09,49,17.10
2016,08,24,09,50,17.10
2016,08,24,09,51,17.20
2016,08,24,09,52,17.20
2016,08,24,09,53,17.20
2016,08,24,09,54,17.30
2016,08,24,09,55,17.30
2016,08,24,09,56,17.30
2016,08,24,09,57,17.30
2016,08,24,09,58,17.40
2016,08,24,09,59,17.50
2016,08,24,10,00,17.50
2016,08,24,10,01,17.60
2016,08,24,10,02,17.60
2016,08,24,10,03,17.60
2016,08,24,10,04,17.60
2016,08,24,10,05,17.50
2016,08,24,10,06,17.50
2016,08,24,10,07,17.50
2016,08,24,10,08,17.50
2016,08,24,10,09,17.50
2016,08,24,10,10,17.50
2016,08,24,10,11,17.50
2016,08,24,10,12,17.50
2016,08,24,10,13,17.50
2016,08,24,10,14,17.60
2016,08,24,10,15,17.60
2016,08,24,10,16,17.60
2016,08,24,10,17,17.60
2016,08,24,10,18,17.60
2016,08,24,10,19,17.60
2016,08,24,10,20,17.60
2016,08,24,10,21,17.50
2016,08,24,10,22,17.40
2016,08,24,10,23,17.40
2016,08,24,10,24,17.40
2016,08,24,10,25,17.40
2016,08,24,10,26,17.30
2016,08,24,10,27,17.30
2016,08,24,10,28,17.10
2016,08,24,10,29,17.00
2016,08,24,10,30,17.00
2016,08,24,10,31,16.90
2016,08,24,10,32,17.00
2016,08,24,10,33,17.10
2016,08,24,10,34,17.20
2016,08,24,10,35,17.30
2016,08,24,10,36,17.30
2016,08,24,10,37,17.40
2016,08,24,10,38,17.50
2016,08,24,10,39,17.60
2016,08,24,10,40,17.70
2016,08,24,10,41,17.80
2016,08,24,10,42,17.80
2016,08,24,10,43,17.80
2016,08,24,10,44,17.80
2016,08,24,10,45,17.80
2016,08,24,10,46,17.80
2016,08,24,10,47,17.80
2016,08,24,10,48,17.80
2016,08,24,10,49,17.80
2016,08,24,10,50,17.80
2016,08,24,10,51,17.90
2016,08,24,10,52,17.90
2016,08,24,10,53,18.00
2016,08,24,10,54,18.10
2016,08,24,10,55,18.10
2016,08,24,10,56,18.10
2016,08,24,10,57,18.20
2016,08,24,10,58,18.20
2016,08,24,10,59,18.20
2016,08,24,11,00,18.20
2016,08,24,11,01,18.20
2016,08,24,11,02,18.10
2016,08,24,11,03,18.10
2016,08,24,11,04,17.90
2016,08,24,11,05,17.80
2016,08,24,11,06,17.70
2016,08,24,11,07,17.50
2016,08,24,11,08,17.40
2016,08,24,11,09,17.30
2016,08,24,11,10,17.20
2016,08,24,11,11,17.20
2016,08,24,11,12,17.20
2016,08,24,11,13,17.10
2016,08,24,11,14,17.10
2016,08,24,11,15,17.10
2016,08,24,11,16,17.10
2016,08,24,11,17,17.10
2016,08,24,11,18,17.10
2016,08,24,11,19,17.20
2016,08,24,11,20,17.20
2016,08,24,11,21,17.30
2016,08,24,11,22,17.30
2016,08,24,11,23,17.30
2016,08,24,11,24,17.30
2016,08,24,11,25,17.30
2016,08,24,11,26,17.30
2016,08,24,11,27,17.30
2016,08,24,11,28,17.20
2016,08,24,11,29,17.10
2016,08,24,11,30,17.10
2016,08,24,11,31,17.00
2016,08,24,11,32,16.90
2016,08,24,11,33,16.80
2016,08,24,11,34,16.80
2016,08,24,11,35,16.80
2016,08,24,11,36,16.70
2016,08,24,11,37,16.60
2016,08,24,11,38,16.50
2016,08,24,11,39,16.40
2016,08,24,11,40,16.40
2016,08,24,11,41,16.30
2016,08,24,11,42,16.30
2016,08,24,11,43,16.30
2016,08,24,11,44,16.20
2016,08,24,11,45,16.30
2016,08,24,11,46,16.30
2016,08,24,11,47,16.40
2016,08,24,11,48,16.50
2016,08,24,11,49,16.60
2016,08,24,11,50,16.70
2016,08,24,11,51,16.80
2016,08,24,11,52,16.80
2016,08,24,11,53,16.90
2016,08,24,11,54,16.90
2016,08,24,11,55,16.90
2016,08,24,11,56,16.90
2016,08,24,11,57,16.90
2016,08,24,11,58,16.70
2016,08,24,11,59,16.60
2016,08,24,12,00,16.50
2016,08,24,12,01,16.40
2016,08,24,12,02,16.40
2016,08,24,12,03,16.50
2016,08,24,12,04,16.50
2016,08,24,12,05,16.50
2016,08,24,12,06,16.60
2016,08,24,12,07,16.60
2016,08,24,12,08,16.60
2016,08,24,12,09,16.60
2016,08,24,12,10,16.60
2016,08,24,12,11,16.50
2016,08,24,12,12,16.50
2016,08,24,12,13,16.50
2016,08,24,12,14,16.40
2016,08,24,12,15,16.40
2016,08,24,12,16,16.40
2016,08,24,12,17,16.40
2016,08,24,12,18,16.40
2016,08,24,12,19,16.40
2016,08,24,12,20,16.30
2016,08,24,12,21,16.30
2016,08,24,12,22,16.40
2016,08,24,12,23,16.40
2016,08,24,12,24,16.40
2016,08,24,12,25,16.40
2016,08,24,12,26,16.40
2016,08,24,12,27,16.40
2016,08,24,12,28,16.50
2016,08,24,12,29,16.50
2016,08,24,12,30,16.50
2016,08,24,12,31,16.60
2016,08,24,12,32,16.60
2016,08,24,12,33,16.60
2016,08,24,12,34,16.60
2016,08,24,12,35,16.70
2016,08,24,12,36,16.70
2016,08,24,12,37,16.70
2016,08,24,12,38,16.70
2016,08,24,12,39,16.80
2016,08,24,12,40,16.80
2016,08,24,12,41,16.80
2016,08,24,12,42,16.80
2016,08,24,12,43,16.70
2016,08,24,12,44,16.70
2016,08,24,12,45,16.70
2016,08,24,12,46,16.70
2016,08,24,12,47,16.80
2016,08,24,12,48,16.80
2016,08,24,12,49,16.80
2016,08,24,12,50,16.90
2016,08,24,12,51,16.90
2016,08,24,12,52,16.90
2016,08,24,12,53,16.90
2016,08,24,12,54,16.90
2016,08,24,12,55,17.00
2016,08,24,12,56,17.00
2016,08,24,12,57,17.00
2016,08,24,12,58,17.00
2016,08,24,12,59,17.10
2016,08,24,13,00,17.10
2016,08,24,13,01,17.10
2016,08,24,13,02,17.10
2016,08,24,13,03,17.10
2016,08,24,13,04,17.10
2016,08,24,13,05,17.20
2016,08,24,13,06,17.20
2016,08,24,13,07,17.20
2016,08,24,13,08,17.20
2016,08,24,13,09,17.30
2016,08,24,13,10,17.30
2016,08,24,13,11,17.30
2016,08,24,13,12,17.30
2016,08,24,13,13,17.30
2016,08,24,13,14,17.30
2016,08,24,13,15,17.30
2016,08,24,13,16,17.30
2016,08,24,13,17,17.40
2016,08,24,13,18,17.40
2016,08,24,13,19,17.50
2016,08,24,13,20,17.50
2016,08,24,13,21,17.60
2016,08,24,13,22,17.60
2016,08,24,13,23,17.70
2016,08,24,13,24,17.70
2016,08,24,13,25,17.80
2016,08,24,13,26,17.80
2016,08,24,13,27,17.90
2016,08,24,13,28,17.90
2016,08,24,13,29,18.00
2016,08,24,13,30,18.10
2016,08,24,13,31,18.10
2016,08,24,13,32,18.10
2016,08,24,13,33,18.20
2016,08,24,13,34,18.20
2016,08,24,13,35,18.30
2016,08,24,13,36,18.40
2016,08,24,13,37,18.40
2016,08,24,13,38,18.40
2016,08,24,13,39,18.50
2016,08,24,13,40,18.50
2016,08,24,13,41,18.60
2016,08,24,13,42,18.60
2016,08,24,13,43,18.70
2016,08,24,13,44,18.70
2016,08,24,13,45,18.70
2016,08,24,13,46,18.80
2016,08,24,13,47,18.90
2016,08,24,13,48,18.90
2016,08,24,13,49,19.00
2016,08,24,13,50,19.10
2016,08,24,13,51,19.10
2016,08,24,13,52,19.20
2016,08,24,13,53,19.20
2016,08,24,13,54,19.20
2016,08,24,13,55,19.20
2016,08,24,13,56,19.20
2016,08,24,13,57,19.10
2016,08,24,13,58,18.90
2016,08,24,13,59,18.60
2016,08,24,14,00,18.40
2016,08,24,14,01,18.40
2016,08,24,14,02,18.30
2016,08,24,14,03,18.30
2016,08,24,14,04,18.40
2016,08,24,14,05,18.40
2016,08,24,14,06,18.50
2016,08,24,14,07,18.60
2016,08,24,14,08,18.60
2016,08,24,14,09,18.70
2016,08,24,14,10,18.80
2016,08,24,14,11,18.80
2016,08,24,14,12,18.90
2016,08,24,14,13,19.00
2016,08,24,14,14,19.10
2016,08,24,14,15,19.20
2016,08,24,14,16,19.20
2016,08,24,14,17,19.30
2016,08,24,14,18,19.30
2016,08,24,14,19,19.40
2016,08,24,14,20,19.50
2016,08,24,14,21,19.50
2016,08,24,14,22,19.60
2016,08,24,14,23,19.70
2016,08,24,14,24,19.70
2016,08,24,14,25,19.80
2016,08,24,14,26,19.80
2016,08,24,14,27,19.80
2016,08,24,14,28,19.80
2016,08,24,14,29,19.80
2016,08,24,14,30,19.80
2016,08,24,14,31,19.80
2016,08,24,14,32,19.80
2016,08,24,14,33,19.70
2016,08,24,14,34,19.70
2016,08,24,14,35,19.60
2016,08,24,14,36,19.50
2016,08,24,14,37,19.50
2016,08,24,14,38,19.40
2016,08,24,14,39,19.30
2016,08,24,14,40,19.20
2016,08,24,14,41,19.20
2016,08,24,14,42,19.10
2016,08,24,14,43,19.10
2016,08,24,14,44,19.00
2016,08,24,14,45,19.00
2016,08,24,14,46,18.90
2016,08,24,14,47,18.90
2016,08,24,14,48,18.90
2016,08,24,14,49,18.90
2016,08,24,14,50,18.90
2016,08,24,14,51,18.90
2016,08,24,14,52,19.00
2016,08,24,14,53,18.90
2016,08,24,14,54,18.90
2016,08,24,14,55,19.00
2016,08,24,14,56,19.00
2016,08,24,14,57,18.90
2016,08,24,14,58,19.00
2016,08,24,14,59,19.10
2016,08,24,15,00,19.10
2016,08,24,15,01,19.20
2016,08,24,15,02,19.20
2016,08,24,15,03,19.20
2016,08,24,15,04,19.10
2016,08,24,15,05,19.00
2016,08,24,15,06,18.80
2016,08,24,15,07,18.80
2016,08,24,15,08,18.60
2016,08,24,15,09,18.70
2016,08,24,15,10,18.70
2016,08,24,15,11,18.80
2016,08,24,15,12,18.80
2016,08,24,15,13,18.90
2016,08,24,15,14,19.00
2016,08,24,15,15,19.10
2016,08,24,15,16,19.20
2016,08,24,15,17,19.20
2016,08,24,15,18,19.30
2016,08,24,15,19,19.30
2016,08,24,15,20,19.30
2016,08,24,15,21,19.20
2016,08,24,15,22,19.20
2016,08,24,15,23,19.20
2016,08,24,15,24,19.10
2016,08,24,15,25,19.00
2016,08,24,15,26,18.90
2016,08,24,15,27,18.90
2016,08,24,15,28,18.90
2016,08,24,15,29,18.80
2016,08,24,15,30,18.90
2016,08,24,15,31,18.90
2016,08,24,15,32,18.90
2016,08,24,15,33,18.80
2016,08,24,15,34,18.70
2016,08,24,15,35,18.60
2016,08,24,15,36,18.60
2016,08,24,15,37,18.50
2016,08,24,15,38,18.60
2016,08,24,15,39,18.60
2016,08,24,15,40,18.80
2016,08,24,15,41,18.90
2016,08,24,15,42,18.80
2016,08,24,15,43,18.90
2016,08,24,15,44,18.90
2016,08,24,15,45,18.80
2016,08,24,15,46,18.80
2016,08,24,15,47,18.70
2016,08,24,15,48,18.70
2016,08,24,15,49,18.80
2016,08,24,15,50,19.00
2016,08,24,15,51,19.10
2016,08,24,15,52,19.10
2016,08,24,15,53,19.10
2016,08,24,15,54,19.10
2016,08,24,15,55,19.20
2016,08,24,15,56,19.30
2016,08,24,15,57,19.40
2016,08,24,15,58,19.60
2016,08,24,15,59,19.80
2016,08,24,16,00,20.00
2016,08,24,16,01,20.20
2016,08,24,16,02,20.30
2016,08,24,16,03,20.40
2016,08,24,16,04,20.60
2016,08,24,16,05,20.80
2016,08,24,16,06,20.80
2016,08,24,16,07,20.90
2016,08,24,16,08,20.80
2016,08,24,16,09,20.70
2016,08,24,16,10,20.70
2016,08,24,16,11,20.80
2016,08,24,16,12,21.00
2016,08,24,16,13,21.00
2016,08,24,16,14,20.80
2016,08,24,16,15,20.60
2016,08,24,16,16,20.40
2016,08,24,16,17,20.20
2016,08,24,16,18,20.00
2016,08,24,16,19,19.80
2016,08,24,16,20,19.80
2016,08,24,16,21,19.80
2016,08,24,16,22,19.90
2016,08,24,16,23,20.00
2016,08,24,16,24,20.00
2016,08,24,16,25,19.90
2016,08,24,16,26,19.80
2016,08,24,16,27,19.80
2016,08,24,16,28,19.80
2016,08,24,16,29,19.70
2016,08,24,16,30,19.70
2016,08,24,16,31,19.80
2016,08,24,16,32,19.90
2016,08,24,16,33,20.20
2016,08,24,16,34,20.40
2016,08,24,16,35,20.70
2016,08,24,16,36,21.00
2016,08,24,16,37,21.20
2016,08,24,16,38,21.50
2016,08,24,16,39,21.70
2016,08,24,16,40,21.80
2016,08,24,16,41,22.00
2016,08,24,16,42,22.10
2016,08,24,16,43,22.20
2016,08,24,16,44,22.30
2016,08,24,16,45,22.40
2016,08,24,16,46,22.60
2016,08,24,16,47,22.70
2016,08,24,16,48,22.80
2016,08,24,16,49,22.80
2016,08,24,16,50,22.90
2016,08,24,16,51,23.00
2016,08,24,16,52,23.20
2016,08,24,16,53,23.30
2016,08,24,16,54,23.50
2016,08,24,16,55,23.60
2016,08,24,16,56,23.70
2016,08,24,16,57,23.70
2016,08,24,16,58,23.80
2016,08,24,16,59,23.90
2016,08,24,17,00,24.00
2016,08,24,17,01,24.00
2016,08,24,17,02,24.10
2016,08,24,17,03,24.20
2016,08,24,17,04,24.30
2016,08,24,17,05,24.30
2016,08,24,17,06,24.40
2016,08,24,17,07,24.40
2016,08,24,17,08,24.40
2016,08,24,17,09,24.40
2016,08,24,17,10,24.40
2016,08,24,17,11,24.50
2016,08,24,17,12,24.50
2016,08,24,17,13,24.60
2016,08,24,17,14,24.60
2016,08,24,17,15,24.70
2016,08,24,17,16,24.70
2016,08,24,17,17,24.70
2016,08,24,17,18,24.60
2016,08,24,17,19,24.60